| time (UTC) | temp C | wind direction | speed KPH | gust KPH | rain 1hr cm | rain 24hr cm | rain mn cm | humidity % | barometer mb |
| 20260506004557 | 18 | 0 | 0.0 | 0.0 | 0.00 | 0.00 | 0.00 | 79 | 1017.1 |
| 20260506003058 | 19 | 0 | 0.0 | 0.0 | 0.00 | 0.00 | 0.00 | 76 | 1017.1 |
| 20260506001610 | 20 | 0 | 0.0 | 6.4 | 0.00 | 0.00 | 0.00 | 75 | 1017.0 |
| 20260506000100 | 20 | 0 | 0.0 | 11.3 | 0.00 | 0.00 | 0.00 | 72 | 1017.1 |
| 20260505234559 | 21 | 0 | 0.0 | 14.5 | 0.00 | 0.00 | 0.00 | 70 | 1017.0 |
| 20260505233058 | 21 | 163 | 1.6 | 17.7 | 0.00 | 0.00 | 0.00 | 67 | 1016.8 |
| 20260505231605 | 21 | 140 | 6.4 | 24.1 | 0.00 | 0.00 | 0.00 | 66 | 1016.8 |
| 20260505224558 | 22 | 154 | 6.4 | 24.1 | 0.00 | 0.00 | 0.00 | 63 | 1016.9 |
| 20260505223101 | 22 | 165 | 4.8 | 22.5 | 0.00 | 0.00 | 0.00 | 62 | 1017.0 |
| 20260505221557 | 22 | 156 | 8.0 | 22.5 | 0.00 | 0.00 | 0.00 | 62 | 1017.0 |
| 20260505220100 | 22 | 143 | 11.3 | 22.5 | 0.00 | 0.00 | 0.00 | 60 | 1017.0 |
| 20260505214600 | 22 | 154 | 11.3 | 27.4 | 0.00 | 0.00 | 0.00 | 61 | 1017.0 |
| 20260505213102 | 23 | 169 | 6.4 | 20.9 | 0.00 | 0.00 | 0.00 | 59 | 1017.0 |
| 20260505211558 | 23 | 186 | 8.0 | 20.9 | 0.00 | 0.00 | 0.00 | 58 | 1017.1 |
| 20260505210057 | 23 | 130 | 11.3 | 24.1 | 0.00 | 0.00 | 0.00 | 58 | 1017.0 |
| 20260505204557 | 24 | 201 | 1.6 | 22.5 | 0.00 | 0.00 | 0.00 | 55 | 1017.2 |
| 20260505203104 | 24 | 188 | 6.4 | 20.9 | 0.00 | 0.00 | 0.00 | 56 | 1017.1 |
| 20260505201601 | 24 | 150 | 11.3 | 25.7 | 0.00 | 0.00 | 0.00 | 57 | 1017.1 |
| 20260505200059 | 24 | 151 | 1.6 | 25.7 | 0.00 | 0.00 | 0.00 | 55 | 1017.3 |
| 20260505194558 | 24 | 142 | 4.8 | 20.9 | 0.00 | 0.00 | 0.00 | 57 | 1017.3 |
| 20260505193057 | 24 | 126 | 4.8 | 17.7 | 0.00 | 0.00 | 0.00 | 55 | 1017.6 |
| 20260505191615 | 25 | 167 | 4.8 | 19.3 | 0.00 | 0.00 | 0.00 | 53 | 1017.8 |
| 20260505190057 | 24 | 0 | 3.2 | 22.5 | 0.00 | 0.00 | 0.00 | 50 | 1017.9 |
| 20260505184556 | 25 | 127 | 1.6 | 16.1 | 0.00 | 0.00 | 0.00 | 53 | 1018.1 |
| 20260505183059 | 25 | 164 | 6.4 | 19.3 | 0.00 | 0.00 | 0.00 | 53 | 1018.2 |
| 20260505181558 | 25 | 207 | 1.6 | 20.9 | 0.00 | 0.00 | 0.00 | 53 | 1018.1 |
| 20260505180106 | 24 | 143 | 4.8 | 20.9 | 0.00 | 0.00 | 0.00 | 55 | 1018.2 |
| 20260505174610 | 24 | 0 | 6.4 | 19.3 | 0.00 | 0.00 | 0.00 | 54 | 1018.3 |
| 20260505173057 | 25 | 147 | 1.6 | 25.7 | 0.00 | 0.00 | 0.00 | 55 | 1018.5 |
| 20260505171556 | 23 | 0 | 6.4 | 24.1 | 0.00 | 0.00 | 0.00 | 57 | 1018.5 |
| 20260505170059 | 23 | 158 | 8.0 | 20.9 | 0.00 | 0.00 | 0.00 | 56 | 1018.5 |
| 20260505164556 | 24 | 0 | 0.0 | 17.7 | 0.00 | 0.00 | 0.00 | 56 | 1018.7 |
| 20260505163059 | 23 | 153 | 3.2 | 14.5 | 0.00 | 0.00 | 0.00 | 60 | 1018.7 |
| 20260505161600 | 23 | 0 | 0.0 | 11.3 | 0.00 | 0.00 | 0.00 | 58 | 1018.9 |
| 20260505153057 | 23 | 172 | 0.0 | 11.3 | 0.00 | 0.00 | 0.00 | 62 | 1019.3 |
| 20260505151556 | 22 | 217 | 0.0 | 9.7 | 0.00 | 0.00 | 0.00 | 62 | 1019.2 |
| 20260505124557 | 18 | 0 | 0.0 | 0.0 | 0.00 | 0.00 | 0.00 | 79 | 1018.9 |
| 20260505123101 | 18 | 0 | 0.0 | 1.6 | 0.00 | 0.00 | 0.00 | 81 | 1018.7 |
| 20260505121557 | 17 | 0 | 0.0 | 0.0 | 0.00 | 0.00 | 0.00 | 84 | 1018.8 |
| 20260505120105 | 16 | 0 | 0.0 | 0.0 | 0.00 | 0.00 | 0.00 | 88 | 1018.8 |
| 20260505114600 | 15 | 0 | 0.0 | 0.0 | 0.00 | 0.00 | 0.00 | 87 | 1018.4 |
| 20260505113057 | 13 | 0 | 0.0 | 0.0 | 0.00 | 0.00 | 0.00 | 95 | 1018.6 |
| 20260505111557 | 12 | 0 | 0.0 | 0.0 | 0.00 | 0.00 | 0.00 | 95 | 1018.4 |
| 20260505101609 | 10 | 0 | 0.0 | 0.0 | 0.00 | 0.00 | 0.00 | 96 | 1017.7 |
| 20260505100106 | 10 | 0 | 0.0 | 0.0 | 0.00 | 0.00 | 0.00 | 96 | 1017.6 |
| 20260505094557 | 10 | 0 | 0.0 | 0.0 | 0.00 | 0.00 | 0.00 | 96 | 1017.4 |
| 20260505093106 | 10 | 0 | 0.0 | 0.0 | 0.00 | 0.00 | 0.00 | 95 | 1017.4 |
| 20260505091556 | 10 | 0 | 0.0 | 0.0 | 0.00 | 0.00 | 0.00 | 95 | 1017.3 |
| 20260505084605 | 10 | 0 | 0.0 | 0.0 | 0.00 | 0.00 | 0.00 | 95 | 1017.0 |
| 20260505083107 | 10 | 0 | 0.0 | 0.0 | 0.00 | 0.00 | 0.00 | 95 | 1016.9 |
| 20260505081623 | 10 | 0 | 0.0 | 0.0 | 0.00 | 0.00 | 0.00 | 94 | 1016.7 |
| 20260505080103 | 11 | 0 | 0.0 | 0.0 | 0.00 | 0.00 | 0.00 | 94 | 1016.9 |
| 20260505074555 | 11 | 0 | 0.0 | 0.0 | 0.00 | 0.00 | 0.00 | 93 | 1016.8 |
| 20260505073105 | 11 | 0 | 0.0 | 0.0 | 0.00 | 0.00 | 0.00 | 91 | 1017.0 |
| 20260505071559 | 11 | 0 | 0.0 | 0.0 | 0.00 | 0.00 | 0.00 | 91 | 1016.8 |
| 20260505070100 | 12 | 0 | 0.0 | 0.0 | 0.00 | 0.00 | 0.00 | 91 | 1016.7 |
| 20260505064601 | 11 | 0 | 0.0 | 0.0 | 0.00 | 0.00 | 0.00 | 92 | 1016.7 |
| 20260505063114 | 11 | 0 | 0.0 | 0.0 | 0.00 | 0.00 | 0.00 | 91 | 1017.0 |
| 20260505061559 | 11 | 0 | 0.0 | 0.0 | 0.00 | 0.00 | 0.00 | 91 | 1017.1 |
| 20260505060104 | 11 | 0 | 0.0 | 0.0 | 0.00 | 0.00 | 0.00 | 91 | 1017.2 |
| 20260505054602 | 12 | 0 | 0.0 | 0.0 | 0.00 | 0.00 | 0.00 | 90 | 1017.4 |
| 20260505053103 | 12 | 0 | 0.0 | 0.0 | 0.00 | 0.00 | 0.00 | 88 | 1017.4 |
| 20260505051600 | 12 | 0 | 0.0 | 0.0 | 0.00 | 0.00 | 0.00 | 87 | 1017.9 |
| 20260505041558 | 12 | 0 | 0.0 | 0.0 | 0.00 | 0.00 | 0.00 | 87 | 1017.7 |
| 20260505040104 | 13 | 0 | 0.0 | 0.0 | 0.00 | 0.00 | 0.00 | 86 | 1017.5 |
| 20260505034559 | 13 | 0 | 0.0 | 0.0 | 0.00 | 0.00 | 0.00 | 87 | 1017.7 |
| 20260505033058 | 13 | 0 | 0.0 | 0.0 | 0.00 | 0.00 | 0.00 | 85 | 1017.8 |
| 20260505031600 | 15 | 0 | 0.0 | 0.0 | 0.00 | 0.00 | 0.00 | 81 | 1018.0 |
| 20260505030106 | 15 | 0 | 0.0 | 0.0 | 0.00 | 0.00 | 0.00 | 78 | 1017.9 |
| 20260505024604 | 15 | 0 | 0.0 | 0.0 | 0.00 | 0.00 | 0.00 | 76 | 1017.9 |
| 20260505023104 | 16 | 0 | 0.0 | 0.0 | 0.00 | 0.00 | 0.00 | 73 | 1017.8 |
| 20260505021600 | 16 | 0 | 0.0 | 0.0 | 0.00 | 0.00 | 0.00 | 72 | 1017.8 |
| 20260505020058 | 16 | 0 | 0.0 | 0.0 | 0.00 | 0.00 | 0.00 | 72 | 1017.9 |
| 20260505014605 | 17 | 0 | 0.0 | 0.0 | 0.00 | 0.00 | 0.00 | 71 | 1017.8 |
| 20260505013059 | 17 | 0 | 0.0 | 0.0 | 0.00 | 0.00 | 0.00 | 69 | 1017.7 |
| 20260505011600 | 18 | 0 | 0.0 | 0.0 | 0.00 | 0.00 | 0.00 | 68 | 1017.6 |
| 20260505010117 | 18 | 0 | 0.0 | 0.0 | 0.00 | 0.00 | 0.00 | 67 | 1017.2 |